START_TIME,STEP,MOV.,M15,t_acc.,M20,t_acc.
1979-08-03 15:00:42.630 ,1,0,0.,24.0,0.,24.0
1979-08-03 15:01:06.630 ,2,1,0.,24.0,0.,24.0
1979-08-03 15:01:30.630 ,2,0,0.,24.0,0.,24.0
1979-08-03 15:01:54.630 ,3,1,0.,24.0,0.,24.0
1979-08-03 15:02:18.630 ,3,0,0.,24.0,0.,24.0
1979-08-03 15:02:42.630 ,4,1,0.,24.0,0.,24.0
1979-08-03 15:03:06.630 ,4,0,0.,24.0,0.,24.0
1979-08-03 15:03:30.630 ,5,1,0.,24.0,0.,24.0
1979-08-03 15:03:54.630 ,5,0,0.,24.0,0.,24.0
1979-08-03 15:04:18.630 ,6,1,0.,24.0,0.,24.0
1979-08-03 15:04:42.630 ,6,0,0.,24.0,0.,24.0
1979-08-03 15:05:06.630 ,7,1,0.,24.0,0.,24.0
1979-08-03 15:05:30.630 ,7,0,0.,24.0,0.,24.0
1979-08-03 15:05:54.630 ,7,1,0.,24.0,0.,24.0
1979-08-03 15:06:18.630 ,7,0,0.,24.0,0.,24.0
1979-08-03 15:06:42.630 ,6,1,0.,24.0,0.,24.0
1979-08-03 15:07:06.630 ,6,0,0.,24.0,0.,24.0
1979-08-03 15:07:30.630 ,5,1,0.,24.0,0.,24.0
1979-08-03 15:07:54.630 ,5,0,0.,24.0,0.,24.0
1979-08-03 15:08:18.630 ,4,1,0.,24.0,0.,24.0
1979-08-03 15:08:42.630 ,4,0,0.,24.0,0.,24.0
1979-08-03 15:09:06.630 ,3,1,0.,24.0,0.,24.0
1979-08-03 15:09:30.630 ,3,0,0.,24.0,0.,24.0
1979-08-03 15:09:54.630 ,2,1,0.,24.0,0.,24.0
1979-08-03 15:10:18.630 ,2,0,0.,24.0,0.,24.0
1979-08-03 15:10:42.630 ,1,1,0.,24.0,0.,24.0
1979-08-03 15:11:06.630 ,1,0,0.,24.0,0.,24.0
1979-08-03 15:11:30.630 ,0,1,0.,24.0,0.,24.0
1979-08-03 15:11:54.630 ,0,0,0.,24.0,0.,24.0
1979-08-03 15:12:18.630 ,0,1,0.,24.0,0.,24.0
1979-08-03 15:12:42.630 ,0,0,0.,24.0,0.,24.0
1979-08-03 15:13:06.630 ,1,1,0.,24.0,0.,24.0
1979-08-03 15:13:30.630 ,1,0,0.,24.0,0.,24.0
1979-08-03 15:13:54.630 ,2,1,0.,24.0,0.,24.0
1979-08-03 15:14:18.630 ,2,0,0.,24.0,0.,24.0
1979-08-03 15:14:42.630 ,3,1,0.,24.0,0.,24.0
1979-08-03 15:15:06.630 ,3,0,0.,24.0,0.,24.0
1979-08-03 15:15:30.630 ,4,1,0.,24.0,0.,24.0
1979-08-03 15:15:54.630 ,4,0,0.,24.0,0.,24.0
1979-08-03 15:16:18.630 ,5,1,0.,24.0,0.,24.0
1979-08-03 15:16:42.630 ,5,0,0.,24.0,0.,24.0
1979-08-03 15:17:06.630 ,6,1,0.,24.0,0.,24.0
1979-08-03 15:17:30.630 ,6,0,0.,24.0,0.,24.0
1979-08-03 15:17:54.630 ,7,1,0.,24.0,0.,24.0
1979-08-03 15:18:18.630 ,7,0,0.,24.0,0.,24.0
1979-08-03 15:18:42.630 ,7,1,0.,24.0,0.,24.0
1979-08-03 15:19:06.630 ,7,0,0.,24.0,0.,24.0
1979-08-03 15:19:30.630 ,6,1,0.,24.0,0.,24.0
1979-08-03 15:19:54.630 ,6,0,0.,24.0,0.,24.0
1979-08-03 15:20:18.630 ,5,1,0.,24.0,0.,24.0
1979-08-03 15:20:42.630 ,5,0,0.,24.0,0.,24.0
1979-08-03 15:21:06.630 ,4,1,0.,24.0,0.,24.0
1979-08-03 15:21:30.630 ,4,0,0.,24.0,0.,24.0
1979-08-03 15:21:54.630 ,3,1,0.,24.0,0.,24.0
1979-08-03 15:22:18.630 ,3,0,0.,24.0,0.,24.0
1979-08-03 15:22:42.630 ,2,1,0.,24.0,0.,24.0
1979-08-03 15:23:06.630 ,2,0,0.,24.0,0.,24.0
1979-08-03 15:23:30.630 ,1,1,0.,24.0,0.,24.0
1979-08-03 15:23:54.630 ,1,0,0.,24.0,0.,24.0
1979-08-03 15:24:18.630 ,0,1,0.,24.0,0.,24.0
1979-08-03 15:24:42.630 ,0,0,0.,24.0,0.,24.0
1979-08-03 15:25:06.630 ,0,1,0.,24.0,0.,24.0
1979-08-03 15:25:30.630 ,0,0,0.,24.0,0.,24.0
1979-08-03 15:25:54.630 ,1,1,0.,24.0,0.,24.0
1979-08-03 15:26:18.630 ,1,0,0.,24.0,0.,24.0
1979-08-03 15:26:42.630 ,2,1,0.,24.0,0.,24.0
1979-08-03 15:27:06.630 ,2,0,0.,24.0,0.,24.0
1979-08-03 15:27:30.630 ,3,1,0.,24.0,0.,24.0
1979-08-03 15:27:54.630 ,3,0,0.,24.0,0.,24.0
1979-08-03 15:28:18.630 ,4,1,0.,24.0,0.,24.0
1979-08-03 15:28:42.630 ,4,0,1.,24.0,0.,24.0
1979-08-03 15:29:06.630 ,5,1,0.,24.0,0.,24.0
1979-08-03 15:29:30.630 ,5,0,0.,24.0,0.,24.0
1979-08-03 15:29:54.630 ,6,1,0.,24.0,0.,24.0
1979-08-03 15:30:18.630 ,6,0,0.,24.0,0.,24.0
1979-08-03 15:30:42.630 ,7,0,0.,24.0,0.,24.0
1979-08-03 15:31:06.630 ,7,0,0.,24.0,0.,24.0
1979-08-03 15:31:30.630 ,3,1,0.,24.0,0.,24.0
1979-08-03 15:31:54.630 ,0,1,0.,24.0,0.,24.0
1979-08-03 15:32:18.630 ,4,1,0.,24.0,0.,24.0
1979-08-03 15:32:42.630 ,7,1,0.,24.0,0.,24.0
1979-08-03 15:33:06.630 ,3,1,0.,24.0,0.,24.0
1979-08-03 15:33:30.630 ,0,1,0.,24.0,0.,24.0
1979-08-03 15:47:34.830 ,0,0,0.,24.0,0.,24.0
1979-08-03 15:47:54.630 ,0,0,0.,24.0,0.,24.0
1979-08-03 15:48:18.630 ,1,1,0.,24.0,0.,24.0
1979-08-03 15:48:42.630 ,1,0,0.,24.0,0.,24.0
1979-08-03 15:49:06.630 ,2,1,0.,24.0,0.,24.0
1979-08-03 15:49:30.630 ,2,0,0.,24.0,0.,24.0
1979-08-03 15:49:54.630 ,3,1,0.,24.0,0.,24.0
1979-08-03 15:50:18.630 ,3,0,0.,24.0,0.,24.0
1979-08-03 15:50:42.630 ,4,1,0.,24.0,0.,24.0
1979-08-03 15:51:06.630 ,4,0,0.,24.0,0.,24.0
1979-08-03 15:51:30.630 ,5,1,0.,24.0,0.,24.0
1979-08-03 15:51:54.630 ,5,0,0.,24.0,0.,24.0
1979-08-03 15:52:18.630 ,6,1,0.,24.0,0.,24.0
1979-08-03 15:52:42.630 ,6,0,0.,24.0,0.,24.0
1979-08-03 15:53:06.630 ,7,1,0.,24.0,0.,24.0
1979-08-03 15:53:30.630 ,7,0,0.,24.0,0.,24.0
1979-08-03 15:53:54.630 ,7,1,0.,24.0,0.,24.0
1979-08-03 15:54:18.630 ,7,0,0.,24.0,0.,24.0
1979-08-03 15:54:42.630 ,6,1,0.,24.0,0.,24.0
1979-08-03 15:55:06.630 ,6,0,0.,24.0,0.,24.0
1979-08-03 15:55:30.630 ,5,1,0.,24.0,0.,24.0
1979-08-03 15:55:54.630 ,5,0,0.,24.0,0.,24.0
1979-08-03 15:56:18.630 ,4,1,0.,24.0,0.,24.0
1979-08-03 15:56:42.630 ,4,0,0.,24.0,0.,24.0
1979-08-03 15:57:06.630 ,3,1,0.,24.0,0.,24.0
1979-08-03 15:57:30.630 ,3,0,0.,24.0,0.,24.0
1979-08-03 15:57:54.630 ,2,1,0.,24.0,0.,24.0
1979-08-03 15:58:18.630 ,2,0,0.,24.0,0.,24.0
1979-08-03 15:58:42.630 ,1,1,0.,24.0,0.,24.0
1979-08-03 15:59:06.630 ,1,0,0.,24.0,0.,24.0
1979-08-03 15:59:30.630 ,0,1,0.,24.0,0.,24.0
1979-08-03 15:59:54.630 ,0,0,0.,24.0,0.,24.0
1979-08-03 16:00:18.630 ,0,1,0.,24.0,0.,24.0
1979-08-03 16:00:42.630 ,0,0,0.,24.0,0.,24.0
1979-08-03 16:01:06.630 ,1,1,0.,24.0,0.,24.0
1979-08-03 16:01:30.630 ,1,0,0.,24.0,0.,24.0
1979-08-03 16:01:54.630 ,2,1,0.,24.0,0.,24.0
1979-08-03 16:02:18.630 ,2,0,0.,24.0,0.,24.0
1979-08-03 16:02:42.630 ,3,1,0.,24.0,0.,24.0
1979-08-03 16:03:06.630 ,3,0,0.,24.0,0.,24.0
1979-08-03 16:03:30.630 ,4,1,0.,24.0,0.,24.0
1979-08-03 16:03:54.630 ,4,0,0.,24.0,0.,24.0
1979-08-03 16:04:18.630 ,5,1,0.,24.0,0.,24.0
1979-08-03 16:04:42.630 ,5,0,0.,24.0,0.,24.0
1979-08-03 16:05:06.630 ,6,1,0.,24.0,0.,24.0
1979-08-03 16:05:30.630 ,6,0,0.,24.0,0.,24.0
1979-08-03 16:05:54.630 ,7,1,0.,24.0,0.,24.0
1979-08-03 16:06:18.630 ,7,0,0.,24.0,0.,24.0
1979-08-03 16:06:42.630 ,7,1,0.,24.0,0.,24.0
1979-08-03 16:07:06.630 ,7,0,0.,24.0,0.,24.0
1979-08-03 16:07:30.630 ,6,1,0.,24.0,0.,24.0
1979-08-03 16:07:54.630 ,6,0,0.,24.0,0.,24.0
1979-08-03 16:08:18.630 ,5,1,0.,24.0,0.,24.0
1979-08-03 16:08:42.630 ,5,0,0.,24.0,0.,24.0
1979-08-03 16:09:06.630 ,4,1,0.,24.0,0.,24.0
1979-08-03 16:09:30.630 ,4,0,0.,24.0,0.,24.0
1979-08-03 16:09:54.630 ,3,1,0.,24.0,0.,24.0
1979-08-03 16:10:18.630 ,3,0,0.,24.0,0.,24.0
1979-08-03 16:10:42.630 ,2,1,0.,24.0,0.,24.0
1979-08-03 16:11:06.630 ,2,0,0.,24.0,0.,24.0
1979-08-03 16:11:30.630 ,1,1,0.,24.0,0.,24.0
1979-08-03 16:11:54.630 ,1,0,0.,24.0,0.,24.0
1979-08-03 16:12:18.630 ,0,1,0.,24.0,0.,24.0
1979-08-03 16:12:42.630 ,0,0,0.,24.0,0.,24.0
1979-08-03 16:13:06.630 ,0,1,0.,24.0,0.,24.0
1979-08-03 16:13:30.630 ,0,0,0.,24.0,0.,24.0
1979-08-03 16:13:54.630 ,1,1,0.,24.0,0.,24.0
1979-08-03 16:14:18.630 ,1,0,0.,24.0,0.,24.0
1979-08-03 16:14:42.630 ,2,1,0.,24.0,0.,24.0
1979-08-03 16:15:06.630 ,2,0,0.,24.0,0.,24.0
1979-08-03 16:15:30.630 ,3,1,0.,24.0,0.,24.0
1979-08-03 16:15:54.630 ,3,0,0.,24.0,0.,24.0
1979-08-03 16:16:18.630 ,4,1,0.,24.0,0.,24.0
1979-08-03 16:16:42.630 ,4,0,0.,24.0,0.,24.0
1979-08-03 16:17:06.630 ,5,1,0.,24.0,0.,24.0
1979-08-03 16:17:30.630 ,5,0,0.,24.0,0.,24.0
1979-08-03 16:17:54.630 ,6,1,0.,24.0,0.,24.0
1979-08-03 16:18:18.630 ,6,0,0.,24.0,0.,24.0
1979-08-03 16:18:42.630 ,7,0,0.,24.0,0.,24.0
1979-08-03 16:19:06.630 ,7,0,0.,24.0,0.,24.0
1979-08-03 16:19:30.630 ,3,1,0.,24.0,0.,24.0
1979-08-03 16:19:54.630 ,0,1,0.,24.0,0.,24.0
1979-08-03 16:20:18.630 ,4,1,0.,24.0,0.,24.0
1979-08-03 16:20:42.630 ,7,1,0.,24.0,0.,24.0
1979-08-03 16:21:06.630 ,3,1,0.,24.0,0.,24.0
1979-08-03 16:21:30.630 ,0,1,0.,24.0,0.,24.0
1979-08-03 16:21:54.630 ,4,1,0.,24.0,0.,24.0
1979-08-03 16:22:18.630 ,7,1,0.,24.0,0.,24.0
1979-08-03 16:22:42.630 ,3,1,0.,24.0,0.,24.0
1979-08-03 16:23:06.630 ,0,1,0.,24.0,0.,24.0
1979-08-03 16:23:30.630 ,4,1,0.,24.0,0.,24.0
1979-08-03 16:23:54.630 ,7,1,0.,24.0,0.,24.0
1979-08-03 16:24:18.630 ,3,1,0.,24.0,0.,24.0
1979-08-03 16:24:42.630 ,0,1,0.,24.0,0.,24.0
1979-08-03 16:25:06.630 ,4,1,0.,24.0,0.,24.0
1979-08-03 16:25:30.630 ,7,1,0.,24.0,0.,24.0
1979-08-03 16:25:54.630 ,3,1,0.,24.0,0.,24.0
1979-08-03 16:26:18.630 ,0,1,0.,24.0,0.,24.0
1979-08-03 16:26:42.630 ,4,1,0.,24.0,0.,24.0
1979-08-03 16:27:06.630 ,7,1,0.,24.0,0.,24.0
1979-08-03 16:27:30.630 ,3,1,0.,24.0,0.,24.0
1979-08-03 16:27:54.630 ,0,1,0.,24.0,0.,24.0
1979-08-03 16:28:18.630 ,4,1,0.,24.0,0.,24.0
1979-08-03 16:28:42.630 ,7,1,0.,24.0,0.,24.0
1979-08-03 16:29:06.630 ,3,1,0.,24.0,0.,24.0
1979-08-03 16:29:30.630 ,0,1,0.,24.0,0.,24.0
1979-08-03 16:29:54.630 ,0,0,0.,24.0,0.,24.0
1979-08-03 16:30:18.630 ,0,0,0.,24.0,0.,24.0
1979-08-03 16:30:42.630 ,5,1,0.,24.0,0.,24.0
1979-08-03 16:31:06.630 ,5,0,0.,24.0,0.,24.0
1979-08-03 16:31:30.630 ,4,1,0.,24.0,0.,24.0
1979-08-03 16:31:54.630 ,4,0,0.,24.0,0.,24.0
1979-08-03 16:32:18.630 ,3,1,0.,24.0,0.,24.0
1979-08-03 16:32:42.630 ,3,0,0.,24.0,0.,24.0
1979-08-03 16:33:06.630 ,2,1,0.,24.0,0.,24.0
1979-08-03 16:33:30.630 ,2,0,0.,24.0,0.,24.0
1979-08-03 16:33:54.630 ,1,1,0.,24.0,0.,24.0
1979-08-03 16:34:18.630 ,1,0,0.,24.0,0.,24.0
1979-08-03 16:34:42.630 ,0,1,0.,24.0,0.,24.0
1979-08-03 16:35:06.630 ,0,0,0.,24.0,0.,24.0
1979-08-03 16:35:30.630 ,0,1,0.,24.0,0.,24.0
1979-08-03 16:35:54.630 ,0,0,0.,24.0,0.,24.0
1979-08-03 16:36:18.630 ,1,1,0.,24.0,0.,24.0
1979-08-03 16:36:42.630 ,1,0,0.,24.0,0.,24.0
1979-08-03 16:37:06.630 ,2,1,0.,24.0,0.,24.0
1979-08-03 16:37:30.630 ,2,0,0.,24.0,0.,24.0
1979-08-03 16:37:54.630 ,3,1,0.,24.0,0.,24.0
1979-08-03 16:38:18.630 ,3,0,0.,24.0,0.,24.0
1979-08-03 16:38:42.630 ,4,1,0.,24.0,0.,24.0
1979-08-03 16:39:06.630 ,4,0,0.,24.0,0.,24.0
1979-08-03 16:39:30.630 ,5,1,0.,24.0,0.,24.0
1979-08-03 16:39:54.630 ,5,0,0.,24.0,0.,24.0
1979-08-03 16:40:18.630 ,6,1,0.,24.0,0.,24.0
1979-08-03 16:40:42.630 ,6,0,0.,24.0,0.,24.0
1979-08-03 16:41:06.630 ,7,1,0.,24.0,0.,24.0
1979-08-03 16:41:30.630 ,7,0,0.,24.0,0.,24.0
1979-08-03 16:41:54.630 ,7,1,0.,24.0,0.,24.0
1979-08-03 16:42:18.630 ,7,0,0.,24.0,0.,24.0
1979-08-03 16:42:42.630 ,6,1,0.,24.0,0.,24.0
1979-08-03 16:43:06.630 ,6,0,0.,24.0,0.,24.0
1979-08-03 16:43:30.630 ,5,1,0.,24.0,0.,24.0
1979-08-03 16:43:54.630 ,5,0,0.,24.0,0.,24.0
1979-08-03 16:44:18.630 ,4,1,0.,24.0,0.,24.0
1979-08-03 16:44:42.630 ,4,0,0.,24.0,0.,24.0
1979-08-03 16:45:06.630 ,3,1,0.,24.0,0.,24.0
1979-08-03 16:45:30.630 ,3,0,0.,24.0,0.,24.0
1979-08-03 16:45:54.630 ,2,1,0.,24.0,0.,24.0
1979-08-03 16:46:18.630 ,2,0,0.,24.0,0.,24.0
1979-08-03 16:46:42.630 ,1,1,0.,24.0,0.,24.0
1979-08-03 16:47:06.630 ,1,0,0.,24.0,0.,24.0
1979-08-03 16:47:30.630 ,0,1,0.,24.0,0.,24.0
1979-08-03 16:47:54.630 ,0,0,0.,24.0,0.,24.0
1979-08-03 16:48:18.630 ,0,1,0.,24.0,0.,24.0
1979-08-03 16:48:42.630 ,0,0,0.,24.0,0.,24.0
1979-08-03 16:49:06.630 ,1,1,0.,24.0,0.,24.0
1979-08-03 16:49:30.630 ,1,0,0.,24.0,0.,24.0
1979-08-03 16:49:54.630 ,2,1,0.,24.0,0.,24.0
1979-08-03 16:50:18.630 ,2,0,0.,24.0,0.,24.0
1979-08-03 16:50:42.630 ,3,1,0.,24.0,0.,24.0
1979-08-03 16:51:06.630 ,3,0,0.,24.0,0.,24.0
1979-08-03 16:51:30.630 ,4,1,0.,24.0,0.,24.0
1979-08-03 16:51:54.630 ,4,0,0.,24.0,0.,24.0
1979-08-03 16:52:18.630 ,5,1,0.,24.0,0.,24.0
1979-08-03 16:52:42.630 ,5,0,0.,24.0,0.,24.0
1979-08-03 16:53:06.630 ,6,1,0.,24.0,0.,24.0
1979-08-03 16:53:30.630 ,6,0,0.,24.0,0.,24.0
1979-08-03 16:53:54.630 ,7,1,0.,24.0,0.,24.0
1979-08-03 16:54:18.630 ,7,0,0.,24.0,0.,24.0
1979-08-03 16:54:42.630 ,7,1,0.,24.0,0.,24.0
1979-08-03 16:55:06.630 ,7,0,0.,24.0,0.,24.0
1979-08-03 16:55:30.630 ,6,1,0.,24.0,0.,24.0
1979-08-03 16:55:54.630 ,6,0,0.,24.0,0.,24.0
1979-08-03 16:56:18.630 ,5,1,0.,24.0,0.,24.0
1979-08-03 16:56:42.630 ,5,0,0.,24.0,0.,24.0
1979-08-03 16:57:06.630 ,4,1,0.,24.0,0.,24.0
1979-08-03 16:57:30.630 ,4,0,0.,24.0,0.,24.0
1979-08-03 16:57:54.630 ,3,1,0.,24.0,0.,24.0
1979-08-03 16:58:18.630 ,3,0,0.,24.0,0.,24.0
1979-08-03 16:58:42.630 ,2,1,0.,24.0,0.,24.0
1979-08-03 16:59:06.630 ,0,0,,0,,0
1979-08-03 16:59:30.630 ,1,1,0.,24.0,0.,24.0
1979-08-03 16:59:54.630 ,1,0,0.,24.0,0.,24.0
1979-08-03 17:00:18.630 ,0,1,0.,24.0,0.,24.0
1979-08-03 17:00:42.630 ,0,0,0.,24.0,0.,24.0
1979-08-03 17:01:06.630 ,0,1,0.,24.0,0.,24.0
1979-08-03 17:01:30.630 ,0,0,0.,24.0,0.,24.0
1979-08-03 17:01:54.630 ,1,1,0.,24.0,0.,24.0
1979-08-03 17:02:18.630 ,1,0,0.,24.0,0.,24.0
1979-08-03 17:02:42.630 ,2,1,0.,24.0,0.,24.0
1979-08-03 17:03:06.630 ,2,0,0.,24.0,0.,24.0
1979-08-03 17:03:30.630 ,3,1,0.,24.0,0.,24.0
1979-08-03 17:03:54.630 ,3,0,0.,24.0,0.,24.0
1979-08-03 17:04:18.630 ,4,1,0.,24.0,0.,24.0
1979-08-03 17:04:42.630 ,4,0,0.,24.0,0.,24.0
1979-08-03 17:05:06.630 ,5,1,0.,24.0,0.,24.0
1979-08-03 17:05:30.630 ,5,0,0.,24.0,0.,24.0
1979-08-03 17:05:54.630 ,6,1,0.,24.0,0.,24.0
1979-08-03 17:06:18.630 ,6,0,0.,24.0,0.,24.0
1979-08-03 17:06:42.630 ,7,0,0.,24.0,0.,24.0
1979-08-03 17:07:06.630 ,7,0,0.,24.0,0.,24.0
1979-08-03 17:07:30.630 ,3,1,0.,24.0,0.,24.0
1979-08-03 17:07:54.630 ,0,1,0.,24.0,0.,24.0
1979-08-03 17:08:18.630 ,4,1,0.,24.0,0.,24.0
1979-08-03 17:08:42.630 ,7,1,0.,24.0,0.,24.0
1979-08-03 17:09:06.630 ,3,1,0.,24.0,0.,24.0
1979-08-03 17:09:30.630 ,0,1,0.,24.0,0.,24.0
1979-08-03 17:09:54.630 ,4,1,0.,24.0,0.,24.0
1979-08-03 17:10:18.630 ,7,1,0.,24.0,0.,24.0
1979-08-03 17:10:42.630 ,3,1,0.,24.0,0.,24.0
1979-08-03 17:11:06.630 ,0,1,0.,24.0,0.,24.0
1979-08-03 17:11:30.630 ,4,1,0.,24.0,0.,24.0
1979-08-03 17:11:54.630 ,7,1,0.,24.0,0.,24.0
1979-08-03 17:12:18.630 ,3,1,0.,24.0,0.,24.0
1979-08-03 17:12:42.630 ,0,1,0.,24.0,0.,24.0
1979-08-03 17:13:06.630 ,4,1,0.,24.0,0.,24.0
1979-08-03 17:13:30.630 ,7,1,0.,24.0,0.,24.0
1979-08-03 17:13:54.630 ,3,1,0.,24.0,0.,24.0
1979-08-03 17:14:18.630 ,0,1,0.,24.0,0.,24.0
1979-08-03 17:14:42.630 ,4,1,0.,24.0,0.,24.0
1979-08-03 17:15:06.630 ,7,1,0.,24.0,0.,24.0
1979-08-03 17:15:30.630 ,3,1,0.,24.0,0.,24.0
1979-08-03 17:15:54.630 ,0,1,0.,24.0,0.,24.0
1979-08-03 17:16:18.630 ,4,1,0.,24.0,0.,24.0
1979-08-03 17:16:42.630 ,7,1,0.,24.0,0.,24.0
1979-08-03 17:17:06.630 ,3,1,0.,24.0,0.,24.0
1979-08-03 17:17:30.630 ,0,1,0.,24.0,0.,24.0
1979-08-03 17:17:54.630 ,0,0,0.,24.0,0.,24.0
1979-08-03 17:18:18.630 ,0,0,0.,24.0,0.,24.0
1979-08-03 17:18:42.630 ,5,1,0.,24.0,0.,24.0
1979-08-03 17:19:06.630 ,5,0,0.,24.0,0.,24.0
1979-08-03 17:19:30.630 ,4,1,0.,24.0,0.,24.0
1979-08-03 17:19:54.630 ,4,0,0.,24.0,0.,24.0
1979-08-03 17:20:18.630 ,3,1,0.,24.0,0.,24.0
1979-08-03 17:20:42.630 ,3,0,0.,24.0,0.,24.0
1979-08-03 17:21:06.630 ,2,1,0.,24.0,0.,24.0
1979-08-03 17:21:30.630 ,2,0,0.,24.0,0.,24.0
1979-08-03 17:21:54.630 ,1,1,0.,24.0,0.,24.0
1979-08-03 17:22:18.630 ,1,0,0.,24.0,0.,24.0
1979-08-03 17:22:42.630 ,0,1,0.,24.0,0.,24.0
1979-08-03 17:23:06.630 ,0,0,0.,24.0,0.,24.0
1979-08-03 17:23:30.630 ,0,1,0.,24.0,0.,24.0
1979-08-03 17:23:54.630 ,0,0,0.,24.0,0.,24.0
1979-08-03 17:24:18.630 ,1,1,0.,24.0,0.,24.0
1979-08-03 17:24:42.630 ,1,0,0.,24.0,0.,24.0
1979-08-03 17:25:06.630 ,2,1,0.,24.0,0.,24.0
1979-08-03 17:25:30.630 ,2,0,0.,24.0,0.,24.0
1979-08-03 17:25:54.630 ,3,1,0.,24.0,0.,24.0
1979-08-03 17:26:18.630 ,3,0,0.,24.0,0.,24.0
1979-08-03 17:26:42.630 ,4,1,0.,24.0,0.,24.0
1979-08-03 17:27:06.630 ,4,0,0.,24.0,0.,24.0
1979-08-03 17:27:30.630 ,5,1,0.,24.0,0.,24.0
1979-08-03 17:27:54.630 ,5,0,0.,24.0,0.,24.0
1979-08-03 17:28:18.630 ,6,1,0.,24.0,0.,24.0
1979-08-03 17:28:42.630 ,6,0,0.,24.0,0.,24.0
1979-08-03 17:29:06.630 ,7,1,0.,24.0,0.,24.0
1979-08-03 17:29:30.630 ,7,0,0.,24.0,0.,24.0
1979-08-03 17:29:54.630 ,7,1,0.,24.0,0.,24.0
1979-08-03 17:30:18.630 ,7,0,0.,24.0,0.,24.0
1979-08-03 17:30:42.630 ,6,1,0.,24.0,0.,24.0
1979-08-03 17:31:06.630 ,6,0,0.,24.0,0.,24.0
1979-08-03 17:31:30.630 ,5,1,0.,24.0,0.,24.0
1979-08-03 17:31:54.630 ,5,0,0.,24.0,0.,24.0
1979-08-03 17:32:18.630 ,4,1,0.,24.0,0.,24.0
1979-08-03 17:32:42.630 ,4,0,0.,24.0,0.,24.0
1979-08-03 17:33:06.630 ,3,1,0.,24.0,0.,24.0
1979-08-03 17:33:30.630 ,3,0,1.,24.0,0.,24.0
1979-08-03 17:33:54.630 ,2,1,0.,24.0,0.,24.0
1979-08-03 17:34:18.630 ,2,0,0.,24.0,0.,24.0
1979-08-03 17:34:42.630 ,1,1,0.,24.0,0.,24.0
1979-08-03 17:35:06.630 ,1,0,0.,24.0,0.,24.0
1979-08-03 17:35:30.630 ,0,1,0.,24.0,0.,24.0
1979-08-03 17:35:54.630 ,0,0,0.,24.0,0.,24.0
1979-08-03 17:36:18.630 ,0,1,0.,24.0,0.,24.0
1979-08-03 17:36:42.630 ,0,0,0.,24.0,0.,24.0
1979-08-03 17:37:06.630 ,1,1,0.,24.0,0.,24.0
1979-08-03 17:37:30.630 ,1,0,0.,24.0,0.,24.0
1979-08-03 17:37:54.630 ,2,1,0.,24.0,0.,24.0
1979-08-03 17:38:18.630 ,2,0,0.,24.0,0.,24.0
1979-08-03 17:38:42.630 ,3,1,0.,24.0,0.,24.0
1979-08-03 17:39:06.630 ,3,0,0.,24.0,0.,24.0
1979-08-03 17:39:30.630 ,4,1,0.,24.0,0.,24.0
1979-08-03 17:39:54.630 ,4,0,0.,24.0,0.,24.0
1979-08-03 17:40:18.630 ,5,1,0.,24.0,0.,24.0
1979-08-03 17:40:42.630 ,5,0,0.,24.0,0.,24.0
1979-08-03 17:41:06.630 ,6,1,0.,24.0,0.,24.0
1979-08-03 17:41:30.630 ,6,0,0.,24.0,0.,24.0
1979-08-03 17:41:54.630 ,7,1,0.,24.0,0.,24.0
1979-08-03 17:42:18.630 ,7,0,0.,24.0,0.,24.0
1979-08-03 17:42:42.630 ,7,1,0.,24.0,0.,24.0
1979-08-03 17:43:06.630 ,7,0,0.,24.0,0.,24.0
1979-08-03 17:43:30.630 ,6,1,0.,24.0,0.,24.0
1979-08-03 17:43:54.630 ,6,0,0.,24.0,0.,24.0
1979-08-03 17:44:18.630 ,5,1,0.,24.0,0.,24.0
1979-08-03 17:44:42.630 ,5,0,0.,24.0,0.,24.0
1979-08-03 17:45:06.630 ,4,1,0.,24.0,0.,24.0
1979-08-03 17:45:30.630 ,4,0,0.,24.0,0.,24.0
1979-08-03 17:45:54.630 ,3,1,0.,24.0,0.,24.0
1979-08-03 17:46:18.630 ,3,0,0.,24.0,0.,24.0
1979-08-03 17:46:42.630 ,2,1,0.,24.0,0.,24.0
1979-08-03 17:47:06.630 ,2,0,0.,24.0,0.,24.0
1979-08-03 17:47:30.630 ,1,1,0.,24.0,0.,24.0
1979-08-03 17:47:54.630 ,1,0,0.,24.0,0.,24.0
1979-08-03 17:48:18.630 ,0,1,0.,24.0,0.,24.0
1979-08-03 17:48:42.630 ,0,0,0.,24.0,0.,24.0
1979-08-03 17:49:06.620 ,0,1,0.,24.0,0.,24.0
1979-08-03 17:49:30.620 ,0,0,0.,24.0,0.,24.0
1979-08-03 17:49:54.620 ,1,1,0.,24.0,0.,24.0
1979-08-03 17:50:18.620 ,1,0,0.,24.0,0.,24.0
1979-08-03 17:50:42.620 ,2,1,0.,24.0,0.,24.0
1979-08-03 17:51:06.620 ,2,0,0.,24.0,0.,24.0
1979-08-03 17:51:30.620 ,3,1,0.,24.0,0.,24.0
1979-08-03 17:51:54.620 ,3,0,0.,24.0,0.,24.0
1979-08-03 17:52:18.620 ,4,1,0.,24.0,0.,24.0
1979-08-03 17:52:42.620 ,4,0,0.,24.0,0.,24.0
1979-08-03 17:53:06.620 ,5,1,0.,24.0,0.,24.0
1979-08-03 17:53:30.620 ,5,0,0.,24.0,0.,24.0
1979-08-03 17:53:54.620 ,6,1,0.,24.0,0.,24.0
1979-08-03 17:54:18.620 ,6,0,0.,24.0,0.,24.0
1979-08-03 17:54:42.620 ,7,0,0.,24.0,0.,24.0
1979-08-03 17:55:06.620 ,7,0,0.,24.0,0.,24.0
1979-08-03 17:55:30.620 ,3,1,0.,24.0,0.,24.0
1979-08-03 17:55:54.620 ,0,1,0.,24.0,0.,24.0
1979-08-03 17:56:18.620 ,4,1,0.,24.0,0.,24.0
1979-08-03 17:56:42.620 ,7,1,0.,24.0,0.,24.0
1979-08-03 17:57:06.620 ,3,1,0.,24.0,0.,24.0
1979-08-03 17:57:30.620 ,0,1,0.,24.0,0.,24.0
1979-08-03 17:57:54.620 ,4,1,0.,24.0,0.,24.0
1979-08-03 17:58:18.620 ,7,1,0.,24.0,0.,24.0
1979-08-03 17:58:42.620 ,3,1,0.,24.0,0.,24.0
1979-08-03 17:59:06.620 ,0,1,0.,24.0,0.,24.0
1979-08-03 17:59:30.620 ,4,1,0.,24.0,0.,24.0
1979-08-03 17:59:54.620 ,7,1,0.,24.0,0.,24.0
1979-08-03 18:00:18.620 ,3,1,0.,24.0,0.,24.0
